Time,TemperatureF,DewpointF,PressureIn,WindDirection,WindDirectionDegrees,WindSpeedMPH,WindSpeedGustMPH,Humidity,HourlyPrecipIn,Conditions,Clouds,dailyrainin,SoftwareType,DateUTC
2013-03-03 00:07:00,25.3,18.0,30.12,NE,38,0.0,4.0,74,0.00,,,0.00,weatherlink.com 1.10,2013-03-03 05:07:00,
2013-03-03 00:22:00,25.3,18.0,30.12,NNE,31,3.0,4.0,74,0.00,,,0.00,weatherlink.com 1.10,2013-03-03 05:22:00,
2013-03-03 00:37:00,25.2,18.0,30.12,WNW,295,0.0,2.0,75,0.00,,,0.00,weatherlink.com 1.10,2013-03-03 05:37:00,
2013-03-03 00:52:00,25.2,18.0,30.12,NW,304,2.0,3.0,74,0.00,,,0.00,weatherlink.com 1.10,2013-03-03 05:52:00,
2013-03-03 01:07:00,25.2,18.0,30.11,NNW,333,0.0,2.0,75,0.00,,,0.00,weatherlink.com 1.10,2013-03-03 06:07:00,
2013-03-03 01:22:00,25.2,19.0,30.11,NNW,333,0.0,1.0,76,0.00,,,0.00,weatherlink.com 1.10,2013-03-03 06:22:00,
2013-03-03 01:37:00,25.2,19.0,30.11,NW,315,1.0,3.0,76,0.00,,,0.00,weatherlink.com 1.10,2013-03-03 06:37:00,
2013-03-03 01:52:00,25.2,19.0,30.11,NW,315,0.0,1.0,77,0.00,,,0.00,weatherlink.com 1.10,2013-03-03 06:52:00,
2013-03-03 02:07:00,25.4,19.0,30.11,West,277,0.0,3.0,77,0.00,,,0.00,weatherlink.com 1.10,2013-03-03 07:07:00,
2013-03-03 02:22:00,25.6,20.0,30.11,WNW,292,0.0,3.0,79,0.00,,,0.00,weatherlink.com 1.10,2013-03-03 07:22:00,
2013-03-03 02:37:00,25.7,20.0,30.10,West,281,0.0,3.0,80,0.00,,,0.00,weatherlink.com 1.10,2013-03-03 07:37:00,
2013-03-03 02:52:00,25.7,20.0,30.10,West,275,1.0,3.0,79,0.00,,,0.00,weatherlink.com 1.10,2013-03-03 07:52:00,
2013-03-03 03:07:00,25.8,20.0,30.09,WNW,297,0.0,3.0,79,0.00,,,0.00,weatherlink.com 1.10,2013-03-03 08:07:00,
2013-03-03 03:22:00,26.0,20.0,30.09,NW,313,2.0,6.0,77,0.00,,,0.00,weatherlink.com 1.10,2013-03-03 08:22:00,
2013-03-03 03:37:00,26.0,18.0,30.09,NE,38,5.0,10.0,72,0.00,,,0.00,weatherlink.com 1.10,2013-03-03 08:37:00,
2013-03-03 03:52:00,25.8,18.0,30.09,NNE,12,3.0,10.0,72,0.00,,,0.00,weatherlink.com 1.10,2013-03-03 08:52:00,
2013-03-03 04:07:00,25.6,17.0,30.09,NNW,342,5.0,11.0,69,0.00,,,0.00,weatherlink.com 1.10,2013-03-03 09:07:00,
2013-03-03 04:22:00,25.5,17.0,30.09,North,350,2.0,6.0,71,0.00,,,0.00,weatherlink.com 1.10,2013-03-03 09:22:00,
2013-03-03 04:37:00,25.3,16.0,30.09,WNW,288,3.0,12.0,69,0.00,,,0.00,weatherlink.com 1.10,2013-03-03 09:37:00,
2013-03-03 04:52:00,24.8,16.0,30.09,NW,310,3.0,7.0,69,0.00,,,0.00,weatherlink.com 1.10,2013-03-03 09:52:00,
2013-03-03 05:07:00,24.2,16.0,30.09,NE,36,3.0,5.0,70,0.00,,,0.00,weatherlink.com 1.10,2013-03-03 10:07:00,
2013-03-03 05:22:00,23.7,16.0,30.09,North,5,1.0,5.0,72,0.00,,,0.00,weatherlink.com 1.10,2013-03-03 10:22:00,
2013-03-03 05:37:00,23.2,16.0,30.09,WNW,298,2.0,4.0,75,0.00,,,0.00,weatherlink.com 1.10,2013-03-03 10:37:00,
2013-03-03 05:52:00,22.7,17.0,30.09,NNE,26,4.0,6.0,79,0.00,,,0.00,weatherlink.com 1.10,2013-03-03 10:52:00,
2013-03-03 06:07:00,22.3,17.0,30.10,NE,46,1.0,5.0,81,0.00,,,0.00,weatherlink.com 1.10,2013-03-03 11:07:00,
2013-03-03 06:22:00,21.9,18.0,30.10,NW,326,1.0,3.0,83,0.00,,,0.00,weatherlink.com 1.10,2013-03-03 11:22:00,
2013-03-03 06:37:00,21.4,17.0,30.10,NNW,345,3.0,4.0,83,0.00,,,0.00,weatherlink.com 1.10,2013-03-03 11:37:00,
2013-03-03 06:53:00,20.9,17.0,30.10,WNW,294,2.0,3.0,84,0.00,,,0.00,weatherlink.com 1.10,2013-03-03 11:53:00,
2013-03-03 07:08:00,20.4,17.0,30.10,WNW,294,0.0,2.0,85,0.00,,,0.00,weatherlink.com 1.10,2013-03-03 12:08:00,
2013-03-03 07:23:00,20.1,16.0,30.11,WNW,294,0.0,1.0,85,0.00,,,0.00,weatherlink.com 1.10,2013-03-03 12:23:00,
2013-03-03 07:38:00,19.8,16.0,30.11,WNW,294,0.0,2.0,86,0.00,,,0.00,weatherlink.com 1.10,2013-03-03 12:38:00,
2013-03-03 07:53:00,20.1,17.0,30.11,NW,322,0.0,4.0,87,0.00,,,0.00,weatherlink.com 1.10,2013-03-03 12:53:00,
2013-03-03 08:08:00,20.9,17.0,30.11,WNW,288,0.0,5.0,85,0.00,,,0.00,weatherlink.com 1.10,2013-03-03 13:08:00,
2013-03-03 08:23:00,21.9,17.0,30.12,NE,34,2.0,7.0,81,0.00,,,0.00,weatherlink.com 1.10,2013-03-03 13:23:00,
2013-03-03 08:38:00,22.9,17.0,30.12,NE,51,2.0,8.0,79,0.00,,,0.00,weatherlink.com 1.10,2013-03-03 13:38:00,
2013-03-03 08:53:00,23.0,17.0,30.12,North,350,6.0,8.0,77,0.00,,,0.00,weatherlink.com 1.10,2013-03-03 13:53:00,
2013-03-03 09:08:00,23.2,16.0,30.12,NW,310,6.0,11.0,74,0.00,,,0.00,weatherlink.com 1.10,2013-03-03 14:08:00,
2013-03-03 09:23:00,23.7,17.0,30.12,NNE,31,3.0,11.0,75,0.00,,,0.00,weatherlink.com 1.10,2013-03-03 14:23:00,
2013-03-03 09:38:00,24.0,17.0,30.12,North,5,2.0,12.0,74,0.00,,,0.00,weatherlink.com 1.10,2013-03-03 14:38:00,
2013-03-03 09:53:00,24.5,17.0,30.12,ENE,69,5.0,9.0,72,0.00,,,0.00,weatherlink.com 1.10,2013-03-03 14:53:00,
2013-03-03 10:08:00,25.2,17.0,30.12,NE,50,7.0,11.0,71,0.00,,,0.00,weatherlink.com 1.10,2013-03-03 15:08:00,
2013-03-03 10:23:00,25.4,17.0,30.11,North,355,4.0,12.0,71,0.00,,,0.00,weatherlink.com 1.10,2013-03-03 15:23:00,
2013-03-03 10:38:00,26.4,17.0,30.11,NW,324,0.0,11.0,69,0.00,,,0.00,weatherlink.com 1.10,2013-03-03 15:38:00,
2013-03-03 10:53:00,27.1,18.0,30.11,NNW,336,4.0,17.0,68,0.00,,,0.00,weatherlink.com 1.10,2013-03-03 15:53:00,
2013-03-03 11:08:00,28.6,18.0,30.11,NNE,32,5.0,11.0,66,0.00,,,0.00,weatherlink.com 1.10,2013-03-03 16:08:00,
2013-03-03 11:23:00,28.2,18.0,30.11,NE,40,5.0,13.0,66,0.00,,,0.00,weatherlink.com 1.10,2013-03-03 16:23:00,
2013-03-03 11:38:00,28.5,19.0,30.11,ENE,58,10.0,12.0,67,0.00,,,0.00,weatherlink.com 1.10,2013-03-03 16:38:00,
2013-03-03 11:53:00,28.2,18.0,30.11,NNE,29,5.0,13.0,67,0.00,,,0.00,weatherlink.com 1.10,2013-03-03 16:53:00,
2013-03-03 12:08:00,27.8,17.0,30.11,NNW,342,4.0,14.0,65,0.00,,,0.00,weatherlink.com 1.10,2013-03-03 17:08:00,
2013-03-03 12:23:00,28.6,18.0,30.10,NW,310,3.0,14.0,64,0.00,,,0.00,weatherlink.com 1.10,2013-03-03 17:23:00,
2013-03-03 12:38:00,29.7,18.0,30.10,NE,46,6.0,16.0,63,0.00,,,0.00,weatherlink.com 1.10,2013-03-03 17:38:00,
2013-03-03 12:53:00,30.2,18.0,30.09,NW,317,8.0,11.0,62,0.00,,,0.00,weatherlink.com 1.10,2013-03-03 17:53:00,
2013-03-03 13:08:00,29.9,18.0,30.09,NNW,340,3.0,9.0,61,0.00,,,0.00,weatherlink.com 1.10,2013-03-03 18:08:00,
2013-03-03 13:23:00,30.1,18.0,30.08,NW,313,9.0,15.0,60,0.00,,,0.00,weatherlink.com 1.10,2013-03-03 18:23:00,
2013-03-03 13:38:00,29.7,18.0,30.08,North,5,4.0,13.0,63,0.00,,,0.00,weatherlink.com 1.10,2013-03-03 18:38:00,
2013-03-03 13:53:00,31.9,19.0,30.08,WNW,294,6.0,14.0,60,0.00,,,0.00,weatherlink.com 1.10,2013-03-03 18:53:00,
2013-03-03 14:08:00,30.9,18.0,30.08,WNW,287,6.0,15.0,58,0.00,,,0.00,weatherlink.com 1.10,2013-03-03 19:08:00,
2013-03-03 14:23:00,31.2,19.0,30.07,WNW,286,3.0,11.0,62,0.00,,,0.00,weatherlink.com 1.10,2013-03-03 19:23:00,
2013-03-03 14:38:00,31.1,19.0,30.07,NW,309,4.0,9.0,60,0.00,,,0.00,weatherlink.com 1.10,2013-03-03 19:38:00,
2013-03-03 14:53:00,30.4,17.0,30.07,NW,318,5.0,10.0,58,0.00,,,0.00,weatherlink.com 1.10,2013-03-03 19:53:00,
2013-03-03 15:08:00,29.9,17.0,30.07,NW,320,3.0,10.0,59,0.00,,,0.00,weatherlink.com 1.10,2013-03-03 20:08:00,
2013-03-03 15:23:00,31.0,18.0,30.06,WNW,296,3.0,11.0,58,0.00,,,0.00,weatherlink.com 1.10,2013-03-03 20:23:00,
2013-03-03 15:39:00,32.8,19.0,30.07,WNW,286,7.0,14.0,57,0.00,,,0.00,weatherlink.com 1.10,2013-03-03 20:39:00,
2013-03-03 15:54:00,31.6,18.0,30.07,West,271,3.0,14.0,57,0.00,,,0.00,weatherlink.com 1.10,2013-03-03 20:54:00,
2013-03-03 16:09:00,32.0,17.0,30.07,NW,320,4.0,11.0,55,0.00,,,0.00,weatherlink.com 1.10,2013-03-03 21:09:00,
2013-03-03 16:24:00,32.5,19.0,30.07,West,279,3.0,10.0,57,0.00,,,0.00,weatherlink.com 1.10,2013-03-03 21:24:00,
2013-03-03 16:39:00,32.1,19.0,30.06,WNW,295,6.0,10.0,58,0.00,,,0.00,weatherlink.com 1.10,2013-03-03 21:39:00,
2013-03-03 16:54:00,31.2,20.0,30.07,WNW,299,9.0,12.0,63,0.00,,,0.00,weatherlink.com 1.10,2013-03-03 21:54:00,
2013-03-03 17:09:00,31.0,19.0,30.07,West,279,4.0,12.0,62,0.00,,,0.00,weatherlink.com 1.10,2013-03-03 22:09:00,
2013-03-03 17:24:00,30.1,19.0,30.07,NW,321,5.0,10.0,63,0.00,,,0.00,weatherlink.com 1.10,2013-03-03 22:24:00,
2013-03-03 17:39:00,29.8,18.0,30.07,WNW,298,1.0,7.0,63,0.00,,,0.00,weatherlink.com 1.10,2013-03-03 22:39:00,
2013-03-03 17:54:00,29.6,19.0,30.08,WNW,288,3.0,12.0,64,0.00,,,0.00,weatherlink.com 1.10,2013-03-03 22:54:00,
2013-03-03 18:09:00,29.4,19.0,30.08,NW,309,3.0,9.0,65,0.00,,,0.00,weatherlink.com 1.10,2013-03-03 23:09:00,
2013-03-03 18:24:00,28.9,18.0,30.08,NW,304,1.0,13.0,64,0.00,,,0.00,weatherlink.com 1.10,2013-03-03 23:24:00,
2013-03-03 18:39:00,28.4,18.0,30.09,WNW,288,3.0,10.0,66,0.00,,,0.00,weatherlink.com 1.10,2013-03-03 23:39:00,
2013-03-03 18:54:00,28.1,18.0,30.09,WNW,299,5.0,9.0,66,0.00,,,0.00,weatherlink.com 1.10,2013-03-03 23:54:00,
2013-03-03 19:09:00,27.7,18.0,30.09,West,276,2.0,7.0,67,0.00,,,0.00,weatherlink.com 1.10,2013-03-04 00:09:00,
2013-03-03 19:24:00,27.5,19.0,30.10,West,275,2.0,8.0,70,0.00,,,0.00,weatherlink.com 1.10,2013-03-04 00:24:00,
2013-03-03 19:39:00,27.3,18.0,30.10,WNW,285,2.0,7.0,69,0.00,,,0.00,weatherlink.com 1.10,2013-03-04 00:39:00,
2013-03-03 19:54:00,27.0,18.0,30.10,West,261,3.0,8.0,70,0.00,,,0.00,weatherlink.com 1.10,2013-03-04 00:54:00,
2013-03-03 20:09:00,26.5,18.0,30.11,West,273,7.0,9.0,69,0.00,,,0.00,weatherlink.com 1.10,2013-03-04 01:09:00,
2013-03-03 20:24:00,26.1,17.0,30.11,WSW,258,2.0,7.0,69,0.00,,,0.00,weatherlink.com 1.10,2013-03-04 01:24:00,
2013-03-03 20:39:00,25.8,17.0,30.11,NW,317,3.0,7.0,69,0.00,,,0.00,weatherlink.com 1.10,2013-03-04 01:39:00,
2013-03-03 20:54:00,25.6,17.0,30.11,NW,312,2.0,8.0,70,0.00,,,0.00,weatherlink.com 1.10,2013-03-04 01:54:00,
2013-03-03 21:09:00,25.2,17.0,30.11,WNW,293,2.0,5.0,70,0.00,,,0.00,weatherlink.com 1.10,2013-03-04 02:09:00,
2013-03-03 21:24:00,24.9,17.0,30.11,WNW,298,2.0,7.0,71,0.00,,,0.00,weatherlink.com 1.10,2013-03-04 02:24:00,
2013-03-03 21:39:00,24.6,16.0,30.11,NNW,338,1.0,5.0,71,0.00,,,0.00,weatherlink.com 1.10,2013-03-04 02:39:00,
2013-03-03 21:54:00,24.2,17.0,30.11,WNW,284,0.0,3.0,73,0.00,,,0.00,weatherlink.com 1.10,2013-03-04 02:54:00,
2013-03-03 22:09:00,23.6,17.0,30.11,NNE,12,1.0,3.0,75,0.00,,,0.00,weatherlink.com 1.10,2013-03-04 03:09:00,
2013-03-03 22:24:00,23.4,17.0,30.12,NNW,343,0.0,3.0,75,0.00,,,0.00,weatherlink.com 1.10,2013-03-04 03:24:00,
2013-03-03 22:39:00,23.0,17.0,30.11,NNE,19,0.0,3.0,76,0.00,,,0.00,weatherlink.com 1.10,2013-03-04 03:39:00,
2013-03-03 22:54:00,22.4,16.0,30.11,NNW,340,0.0,2.0,77,0.00,,,0.00,weatherlink.com 1.10,2013-03-04 03:54:00,
2013-03-03 23:09:00,22.0,16.0,30.11,WNW,295,0.0,3.0,78,0.00,,,0.00,weatherlink.com 1.10,2013-03-04 04:09:00,
2013-03-03 23:24:00,21.8,16.0,30.12,WNW,295,0.0,2.0,78,0.00,,,0.00,weatherlink.com 1.10,2013-03-04 04:24:00,
2013-03-03 23:39:00,21.2,16.0,30.12,West,278,0.0,3.0,79,0.00,,,0.00,weatherlink.com 1.10,2013-03-04 04:39:00,
2013-03-03 23:54:00,20.5,16.0,30.12,West,278,0.0,2.0,81,0.00,,,0.00,weatherlink.com 1.10,2013-03-04 04:54:00,